Weather History for KDVK - April, 2014

Change the Weather History Date:

Wednesday, April 16, 2014

  Actual Average (KLEX) Record (KLEX)
Temperature  
Mean Temperature 38 °F 56 °F  
Max Temperature 53 °F 66 °F 85 °F (1896)
Min Temperature 24 °F 45 °F 20 °F (1875)
Degree Days  
Heating Degree Days 26 10  
Month to date heating degree days 198  
Since 1 July heating degree days 4374  
Cooling Degree Days 0 1  
Month to date cooling degree days 7  
Year to date cooling degree days 9  
Moisture  
Dew Point 24 °F    
Average Humidity 59    
Maximum Humidity 86    
Minimum Humidity 35    
Precipitation  
Precipitation 0.00 in 0.11 in 1.99 in (1954)
Month to date precipitation 1.80  
Year to date precipitation 12.27  
Snow  
Snow 0.00 in 0.00 in 0.80 in (1905)
Month to date snowfall 0.3  
Since 1 July snowfall 13.0  
Snow Depth -    
Sea Level Pressure  
Sea Level Pressure 30.30 in    
Wind  
Wind Speed 4 mph (East)    
Max Wind Speed 14 mph    
Max Gust Speed 20 mph    
Visibility 10 miles    
Events      
T = Trace of Precipitation, MM = Missing Value Source: NWS Daily Summary

Daily Weather History Graph

Daily Weather History Graph

Search for Another Location

Airport or City:

Trip Planner

Search our weather history database for the weather conditions in past years. The results will help you decide how hot, cold, wet, or windy it might be!

Date:

Astronomy

Apr. 16, 2014 Rise Set
Actual Time 7:02 AM EDT 8:15 PM EDT
Civil Twilight 6:35 AM EDT 8:42 PM EDT
Nautical Twilight 6:03 AM EDT 9:15 PM EDT
Astronomical Twilight 5:29 AM EDT 9:48 PM EDT
Moon 9:56 PM EDT (4/16) 7:50 AM EDT (4/16)
Length of Visible Light 14h 06m
Length of Day
13h 12m
Full, 98% of the Moon is Illuminated
Apr 16
Full
Apr 22
Last Quarter
Apr 29
New
May 6
First Quarter
May 14
Full

Hourly Weather History & Observations

Time (EDT) Temp. Windchill Dew Point Humidity Pressure Visibility Wind Dir Wind Speed Gust Speed Precip Events Conditions
12:15 AM 30.2 °F 25.4 °F 23.0 °F 75% 30.23 in 10.0 mi NE 4.6 mph - N/A   Clear
12:35 AM 30.2 °F 25.4 °F 23.0 °F 75% 30.24 in 10.0 mi NE 4.6 mph - N/A   Clear
12:55 AM 30.2 °F 26.7 °F 23.0 °F 75% 30.25 in 10.0 mi NE 3.5 mph - N/A   Clear
1:15 AM 30.2 °F 25.4 °F 23.0 °F 75% 30.25 in 10.0 mi NE 4.6 mph - N/A   Clear
1:35 AM 30.2 °F 25.4 °F 21.2 °F 69% 30.25 in 10.0 mi NE 4.6 mph - N/A   Clear
1:55 AM 30.2 °F 26.7 °F 21.2 °F 69% 30.27 in 10.0 mi NE 3.5 mph - N/A   Clear
2:15 AM 30.2 °F - 21.2 °F 69% 30.29 in 10.0 mi Calm Calm - N/A   Clear
2:35 AM 28.4 °F - 21.2 °F 74% 30.29 in 10.0 mi Calm Calm - N/A   Clear
2:55 AM 28.4 °F - 21.2 °F 74% 30.29 in 10.0 mi Calm Calm - N/A   Clear
3:15 AM 28.4 °F - 21.2 °F 74% 30.30 in 10.0 mi Calm Calm - N/A   Clear
3:35 AM 26.6 °F - 21.2 °F 80% 30.30 in 10.0 mi Calm Calm - N/A   Clear
3:55 AM 26.6 °F - 23.0 °F 86% 30.31 in 10.0 mi Calm Calm - N/A   Clear
4:15 AM 28.4 °F - 23.0 °F 80% 30.32 in 10.0 mi Calm Calm - N/A   Clear
4:35 AM 26.6 °F - 23.0 °F 86% 30.33 in 10.0 mi Calm Calm - N/A   Clear
4:55 AM 26.6 °F - 23.0 °F 86% 30.34 in 10.0 mi Calm Calm - N/A   Clear
5:15 AM 26.6 °F - 23.0 °F 86% 30.34 in 10.0 mi Calm Calm - N/A   Clear
5:35 AM 26.6 °F - 21.2 °F 80% 30.35 in 10.0 mi Calm Calm - N/A   Clear
5:55 AM 26.6 °F - 23.0 °F 86% 30.34 in 10.0 mi Calm Calm - N/A   Clear
6:15 AM 24.8 °F - 21.2 °F 86% 30.35 in 10.0 mi Calm Calm - N/A   Clear
6:35 AM 26.6 °F - 23.0 °F 86% 30.35 in 10.0 mi Calm Calm - N/A   Clear
6:55 AM 26.6 °F - 21.2 °F 80% 30.36 in 10.0 mi Calm Calm - N/A   Clear
7:15 AM 24.8 °F - 21.2 °F 86% 30.37 in 10.0 mi Calm Calm - N/A   Clear
7:35 AM 26.6 °F 22.6 °F 23.0 °F 86% 30.37 in 10.0 mi East 3.5 mph - N/A   Clear
7:55 AM 28.4 °F 23.3 °F 23.0 °F 80% 30.37 in 10.0 mi East 4.6 mph - N/A   Clear
8:15 AM 30.2 °F 24.3 °F 23.0 °F 75% 30.37 in 10.0 mi East 5.8 mph - N/A   Clear
8:35 AM 30.2 °F 23.4 °F 23.0 °F 75% 30.38 in 10.0 mi ESE 6.9 mph - N/A   Clear
8:55 AM 32.0 °F 24.8 °F 23.0 °F 69% 30.39 in 10.0 mi East 8.1 mph - N/A   Clear
9:15 AM 32.0 °F 23.6 °F 23.0 °F 69% 30.37 in 10.0 mi East 10.4 mph - N/A   Clear
9:35 AM 33.8 °F 24.8 °F 23.0 °F 65% 30.37 in 10.0 mi East 12.7 mph 18.4 mph N/A   Clear
9:55 AM 35.6 °F 27.5 °F 21.2 °F 56% 30.37 in 10.0 mi ESE 11.5 mph 19.6 mph N/A   Clear
10:15 AM 35.6 °F 26.6 °F 23.0 °F 60% 30.38 in 10.0 mi ESE 13.8 mph 19.6 mph N/A   Clear
10:35 AM 37.4 °F 30.8 °F 21.2 °F 52% 30.38 in 10.0 mi ESE 9.2 mph 18.4 mph N/A   Clear
10:55 AM 37.4 °F 31.4 °F 19.4 °F 48% 30.38 in 10.0 mi East 8.1 mph 16.1 mph N/A   Clear
11:15 AM 37.4 °F 29.3 °F 19.4 °F 48% 30.39 in 10.0 mi East 12.7 mph 16.1 mph N/A   Clear
11:35 AM 41.0 °F 33.9 °F 21.2 °F 45% 30.39 in 10.0 mi East 12.7 mph - N/A   Clear
11:55 AM 41.0 °F 33.5 °F 23.0 °F 49% 30.38 in 10.0 mi East 13.8 mph 18.4 mph N/A   Clear
12:15 PM 42.8 °F 38.0 °F 21.2 °F 42% 30.38 in 10.0 mi ESE 8.1 mph - N/A   Clear
12:35 PM 42.8 °F 40.1 °F 21.2 °F 42% 30.38 in 10.0 mi SE 4.6 mph - N/A   Clear
12:55 PM 42.8 °F 36.6 °F 21.2 °F 42% 30.37 in 10.0 mi East 11.5 mph 17.3 mph N/A   Clear
1:15 PM 44.6 °F 40.7 °F 23.0 °F 43% 30.37 in 10.0 mi ESE 6.9 mph - N/A   Clear
1:35 PM 44.6 °F 40.2 °F 24.8 °F 46% 30.36 in 10.0 mi East 8.1 mph - N/A   Clear
1:55 PM 44.6 °F 43.1 °F 23.0 °F 43% 30.35 in 10.0 mi ESE 3.5 mph - N/A   Clear
2:15 PM 46.4 °F 44.3 °F 23.0 °F 40% 30.34 in 10.0 mi SSE 4.6 mph - N/A   Clear
2:35 PM 48.2 °F - 26.6 °F 43% 30.34 in 10.0 mi East 8.1 mph - N/A   Clear
2:55 PM 46.4 °F 41.9 °F 26.6 °F 46% 30.32 in 10.0 mi East 9.2 mph - N/A   Clear
3:15 PM 48.2 °F - 26.6 °F 43% 30.32 in 10.0 mi East 4.6 mph - N/A   Clear
3:35 PM 50.0 °F - 26.6 °F 40% 30.31 in 10.0 mi ENE 6.9 mph - N/A   Clear
3:55 PM 50.0 °F - 26.6 °F 40% 30.29 in 10.0 mi ENE 6.9 mph - N/A   Clear
4:15 PM 51.8 °F - 26.6 °F 38% 30.28 in 10.0 mi ENE 10.4 mph - N/A   Clear
4:35 PM 51.8 °F - 26.6 °F 38% 30.27 in 10.0 mi ESE 8.1 mph - N/A   Clear
4:55 PM 51.8 °F - 24.8 °F 35% 30.26 in 10.0 mi East 10.4 mph - N/A   Clear
5:15 PM 51.8 °F - 26.6 °F 38% 30.26 in 10.0 mi East 9.2 mph - N/A   Clear
5:35 PM 53.6 °F - 26.6 °F 35% 30.25 in 10.0 mi East 5.8 mph - N/A   Clear
5:55 PM 51.8 °F - 26.6 °F 38% 30.25 in 10.0 mi ENE 8.1 mph - N/A   Clear
6:15 PM 53.6 °F - 26.6 °F 35% 30.24 in 10.0 mi East 8.1 mph - N/A   Clear
6:35 PM 51.8 °F - 26.6 °F 38% 30.23 in 10.0 mi East 6.9 mph - N/A   Clear
6:55 PM 53.6 °F - 26.6 °F 35% 30.23 in 10.0 mi East 9.2 mph - N/A   Clear
7:15 PM 51.8 °F - 26.6 °F 38% 30.23 in 10.0 mi East 9.2 mph - N/A   Clear
7:35 PM 51.8 °F - 26.6 °F 38% 30.23 in 10.0 mi East 3.5 mph - N/A   Clear
7:55 PM 50.0 °F - 28.4 °F 43% 30.22 in 10.0 mi East 4.6 mph - N/A   Clear
8:15 PM 48.2 °F - 28.4 °F 46% 30.22 in 10.0 mi East 4.6 mph - N/A   Clear
8:35 PM 46.4 °F 44.3 °F 28.4 °F 50% 30.22 in 10.0 mi East 4.6 mph - N/A   Clear
8:55 PM 44.6 °F 41.4 °F 28.4 °F 53% 30.23 in 10.0 mi East 5.8 mph - N/A   Clear
9:15 PM 44.6 °F 42.2 °F 26.6 °F 49% 30.23 in 10.0 mi East 4.6 mph - N/A   Clear
9:35 PM 44.6 °F 42.2 °F 28.4 °F 53% 30.23 in 10.0 mi East 4.6 mph - N/A   Clear
9:55 PM 44.6 °F 43.1 °F 28.4 °F 53% 30.23 in 10.0 mi ESE 3.5 mph - N/A   Clear
10:15 PM 42.8 °F - 28.4 °F 57% 30.23 in 10.0 mi Calm Calm - N/A   Clear
10:35 PM 41.0 °F - 28.4 °F 61% 30.24 in 10.0 mi Calm Calm - N/A   Clear
10:55 PM 41.0 °F - 28.4 °F 61% 30.24 in 10.0 mi Calm Calm - N/A   Clear
11:15 PM 41.0 °F - 28.4 °F 61% 30.25 in 10.0 mi Calm Calm - N/A   Clear
11:35 PM 39.2 °F - 30.2 °F 70% 30.25 in 10.0 mi Calm Calm - N/A   Clear
11:55 PM 37.4 °F - 30.2 °F 75% 30.25 in 10.0 mi Calm Calm - N/A   Clear